This demonstration page uses our WeatherBlox Daily Observations layout. Learn more.

Left ArrowRight Arrow

Hourly Observations for August 17, 2020

Temp ( °F °C ) Dew Point ( °F °C ) Humidity (%) Winds ( mph kmh ) Pressure ( in mb ) Visibility ( mi km ) Precip ( " mm )
12:54 am 00:54 Clear 65 18.3 61 16.1 87 87 SSW 5 7 30.12 1020 10 16.0934 0 0
1:54 am 01:54 Clear 65 18.3 61 16.1 87 87 WSW 5 7 30.12 1020 10 16.0934 0 0
2:54 am 02:54 Clear 64 17.8 61 16.1 90 90 WNW 3 6 30.13 1020 10 16.0934 0 0
3:54 am 03:54 Clear 64 17.8 60 15.6 87 87 Calm 30.12 1020 10 16.0934 0 0
4:54 am 04:54 Clear 64 17.8 60 15.6 87 87 Calm 30.12 1020 10 16.0934 0 0
5:54 am 05:54 Clear 59 15 57 13.9 93 93 N 5 7 30.14 1021 10 16.0934 0 0
6:54 am 06:54 Sunny 63 17.2 59 15 87 87 NW 3 6 30.17 1022 9 14.48406 0 0
7:54 am 07:54 Sunny 66 18.9 60 15.6 81 81 WNW 3 6 30.18 1022 9 14.48406 0 0
8:54 am 08:54 Sunny 71 21.7 62 16.7 73 73 NW 3 6 30.19 1022 10 16.0934 0 0
9:54 am 09:54 Sunny 75 23.9 61 16.1 62 62 N 7 11 30.19 1022 10 16.0934 0 0
10:54 am 10:54 Sunny 79 26.1 61 16.1 54 54 WNW 6 9 30.2 1023 10 16.0934 0 0
11:54 am 11:54 Sunny 80 26.7 59 15 49 49 VRB 5 7 30.2 1023 10 16.0934 0 0
12:54 pm 12:54 Sunny 82 27.8 58 14.4 44 44 NNW 8 13 30.18 1022 10 16.0934 0 0
1:54 pm 13:54 Sunny 83 28.3 60 15.6 46 46 N 8 13 30.18 1022 10 16.0934 0 0
2:54 pm 14:54 Sunny 84 28.9 61 16.1 46 46 N 10 17 30.15 1021 10 16.0934 0 0
3:54 pm 15:54 Sunny 84 28.9 61 16.1 46 46 N 7 11 30.14 1021 10 16.0934 0 0
4:54 pm 16:54 Sunny 85 29.4 61 16.1 45 45 NNE 9 15 30.12 1020 10 16.0934 0 0
5:54 pm 17:54 Sunny 84 28.9 61 16.1 46 46 NE 10 17 30.12 1020 10 16.0934 0 0
6:54 pm 18:54 Sunny 82 27.8 61 16.1 49 49 NNE 8 13 30.11 1020 10 16.0934 0 0
7:54 pm 19:54 Sunny 77 25 61 16.1 58 58 NNE 7 11 30.11 1020 10 16.0934 0 0
8:54 pm 20:54 Clear 75 23.9 61 16.1 62 62 NNE 3 6 30.12 1020 10 16.0934 0 0
9:54 pm 21:54 Clear 72 22.2 62 16.7 71 71 Calm 30.14 1021 10 16.0934 0 0
10:54 pm 22:54 Clear 66 18.9 62 16.7 87 87 N 5 7 30.14 1021 10 16.0934 0 0
11:54 pm 23:54 Clear 67 19.4 63 17.2 87 87 N 6 9 30.14 1021 10 16.0934 0 0

Powered by AerisWeather